Wind_Speed
40 48 26 15 21 26 20 22 21 16 22 24 20 14 18 16 12 15 22 23 21 20 17 20 23 19 24 25 27 31 28 25 25 23 25 23 24 27 26 24 24 21 20 18
44 33 28 25 31 28 25 26 19 25 26 24 20 14 12 12 21 18 26 21 21 30 25 21 23 24 23 24 27 28 27 24 23 22 23 21 22 24 22 19 20 17 15 16
43 35 31 33 33 34 29 28 17 21 25 27 22 20 18 14 18 20 25 24 22 27 27 27 27 24 25 24 26 24 24 23 21 21 19 18 21 21 18 22 19 15 15 11
48 45 40 38 38 34 36 19 20 21 26 23 24 25 20 20 22 27 29 28 24 23 28 28 27 25 25 24 22 25 21 20 19 19 16 16 19 19 19 20 18 16 15 8
49 44 42 38 36 32 25 26 24 22 23 26 30 31 22 23 20 25 25 14 14 21 24 25 21 22 21 21 21 21 20 17 17 18 14 14 18 19 21 20 15 13 13 9
51 48 43 40 40 38 24 32 28 27 29 37 25 34 10 16 19 15 6 9 12 19 28 20 19 17 18 17 21 18 18 16 16 16 13 14 18 15 20 21 12 9 11 8
46 44 42 41 42 44 38 36 36 36 40 32 23 22 8 9 13 12 12 13 14 18 30 19 17 14 16 18 17 17 16 14 14 12 10 12 17 15 18 16 12 9 5 8
34 36 35 32 38 43 43 41 40 39 34 26 23 20 9 7 14 17 15 16 18 22 28 16 15 14 16 17 14 15 13 11 13 10 9 11 15 16 16 15 11 11 3 8
36 37 30 29 30 38 41 39 33 33 26 29 18 18 18 11 11 9 13 15 17 20 23 15 13 13 12 13 11 13 12 12 12 9 7 11 13 15 13 16 8 17 9 4
39 36 29 24 30 34 33 33 35 38 34 29 24 22 19 14 14 11 10 15 16 21 20 16 15 14 11 9 9 10 10 10 10 4 7 10 10 13 13 13 10 16 15 12
46 44 35 34 32 32 36 38 41 31 26 27 21 20 12 16 16 14 12 16 20 22 16 15 14 10 9 6 7 8 10 9 9 5 7 9 11 9 11 12 6 11 14 14
46 48 40 31 32 27 29 31 33 33 31 29 23 17 15 23 19 15 13 14 16 22 13 12 6 6 5 3 5 8 11 8 10 8 8 10 11 12 11 13 11 12 12 14
49 50 47 41 41 38 38 36 34 33 33 30 24 15 19 18 19 15 15 10 15 22 11 9 6 6 4 2 3 7 9 10 13 10 10 12 13 15 10 12 13 14 14 17
62 58 55 50 43 39 40 39 37 38 38 30 22 20 22 19 19 19 12 11 13 19 7 9 7 5 3 2 2 4 6 7 10 11 8 10 13 17 16 10 14 11 12 15
67 62 57 50 45 42 38 36 38 39 34 32 22 21 22 20 17 13 13 12 10 14 5 7 7 3 3 2 1 2 4 6 8 8 9 7 9 13 15 15 10 10 13 12
67 64 58 54 49 45 44 42 38 35 34 29 25 25 20 23 20 20 17 14 4 9 8 6 7 4 2 3 2 1 4 5 7 8 10 9 9 12 13 16 14 14 12 16
67 67 62 58 55 49 55 49 44 36 32 29 29 23 25 27 22 20 20 8 1 4 10 9 8 7 2 2 2 2 2 5 7 8 8 9 9 12 14 17 22 22 22 21
67 67 63 61 56 63 57 49 44 40 35 30 25 20 29 28 23 23 18 11 1 1 7 9 9 8 5 1 2 2 4 4 6 8 9 12 11 13 16 16 18 19 20 20
67 68 63 63 62 62 59 52 51 45 41 33 29 27 30 33 31 29 21 11 3 3 6 12 9 11 8 6 3 3 3 4 4 7 10 12 11 12 14 16 16 17 19 19
63 64 61 64 58 65 60 52 49 43 40 38 37 31 34 35 32 26 18 13 6 6 4 13 12 12 12 8 5 4 4 5 5 6 8 11 13 12 14 15 15 16 18 18
68 62 61 60 54 60 58 53 49 53 47 37 34 32 33 32 24 22 23 18 12 7 8 7 13 14 15 11 7 6 6 6 7 6 7 9 11 11 11 12 11 10 10 11
70 62 62 59 52 55 61 57 49 44 41 40 33 35 27 25 21 25 24 21 18 10 8 4 14 15 16 15 11 8 9 7 9 9 7 8 9 8 8 9 9 10 11 11
72 66 65 63 53 54 55 68 58 53 49 43 37 37 27 21 22 19 20 22 22 16 10 9 15 19 17 16 14 12 11 10 10 11 10 9 9 9 8 7 7 9 12 14
46 68 67 65 59 45 56 56 67 60 53 48 41 35 32 30 28 24 24 23 22 18 12 12 13 22 20 15 14 14 14 14 11 13 12 11 11 11 12 10 9 8 10 11
40 67 65 69 66 58 51 58 59 54 56 50 45 42 39 38 31 28 27 27 26 20 17 16 13 22 24 20 15 12 18 17 15 14 14 14 12 11 11 10 9 10 11 8
43 56 67 72 69 64 59 55 61 58 59 55 50 46 47 42 33 29 28 28 29 25 19 18 19 18 24 25 21 15 16 18 17 16 15 16 16 15 13 11 11 11 11 11
Wind_Direction
225 238 244 243 271 270 252 238 233 180 185 204 211 238 269 275 282 302 302 310 319 296 311 343 328 312 310 312 311 312 314 318 316 321 320 323 328 328 323 324 327 326 326 330
232 239 247 252 253 251 244 240 229 191 199 220 224 238 247 252 278 304 301 303 303 298 321 337 324 311 313 308 309 313 314 314 315 321 320 322 329 332 336 344 340 341 339 336
235 241 246 242 240 242 238 236 231 199 212 227 240 244 249 260 272 281 294 288 283 287 312 326 327 317 312 305 313 314 313 312 318 323 320 322 333 343 349 345 348 353 348 348
238 236 231 231 231 230 232 234 227 214 218 236 245 248 246 255 267 272 270 279 309 314 329 320 334 319 306 306 314 313 311 313 321 322 321 326 329 339 346 335 347 357 2 10
241 237 237 235 232 235 233 231 226 220 229 235 222 248 243 259 262 259 262 314 319 345 338 331 315 306 304 310 312 313 313 317 319 322 318 323 326 332 340 346 348 357 17 16
237 238 237 235 230 229 219 226 225 223 225 234 223 236 226 220 247 254 273 315 357 347 343 323 306 308 309 314 314 315 319 314 319 320 317 328 325 332 350 350 356 11 13 32
225 224 222 221 218 214 213 216 220 222 228 234 214 227 178 203 237 274 302 315 345 320 335 316 311 298 316 317 317 322 318 320 331 323 323 336 336 334 338 345 358 359 11 38
223 215 217 220 218 213 218 216 225 225 229 237 223 226 160 231 241 270 288 328 326 297 329 311 309 294 309 319 320 320 320 331 333 329 337 336 341 338 340 358 6 9 34 57
216 212 215 219 223 214 214 227 230 232 228 234 224 229 201 220 242 259 312 330 308 323 318 303 308 312 320 318 319 322 327 337 325 323 346 336 343 350 349 359 26 29 41 49
221 220 211 211 206 211 220 226 211 218 213 224 217 216 197 232 253 277 296 325 322 317 321 308 312 297 315 314 323 337 351 350 343 14 349 347 357 3 8 11 37 40 45 65
216 220 217 204 206 210 207 208 207 214 224 224 223 215 213 242 259 279 304 325 314 320 312 312 318 301 313 305 334 10 6 0 9 11 7 3 16 16 2 24 35 23 43 67
204 218 218 213 213 213 220 224 222 221 220 214 222 185 213 232 247 263 284 306 316 326 313 314 306 314 297 297 346 34 18 21 29 19 25 32 36 34 44 54 65 48 71 85
196 205 213 204 207 199 209 211 218 225 218 218 223 171 214 218 228 238 266 299 318 317 302 304 288 331 283 294 357 52 40 38 35 40 61 42 55 50 67 52 67 56 100 109
200 200 204 207 210 213 214 209 207 219 222 217 206 178 219 229 228 241 258 290 308 307 284 280 271 322 315 294 1 57 48 16 35 34 63 49 65 57 57 75 79 74 91 101
205 207 206 199 208 212 214 220 211 215 222 223 197 201 216 236 246 253 266 281 309 301 271 270 244 291 344 300 258 68 62 32 39 46 60 59 67 55 56 63 64 91 94 82
201 206 206 203 201 208 212 211 213 213 217 224 209 208 213 239 242 245 257 269 298 270 256 268 237 242 22 314 246 123 71 55 55 67 68 69 56 69 68 69 78 104 86 77
199 201 202 205 200 200 212 211 210 210 216 223 220 202 213 224 241 246 248 262 128 241 261 253 239 225 183 320 274 183 118 80 68 76 85 81 71 76 84 83 85 88 89 86
198 198 200 204 198 200 213 210 214 217 213 218 219 198 219 231 240 250 257 275 275 184 252 257 243 223 202 221 272 232 168 111 81 83 95 96 89 85 87 86 86 90 90 88
199 198 197 203 205 208 211 209 215 216 216 214 215 201 201 221 234 244 251 256 278 278 231 259 254 227 219 192 241 263 210 175 117 104 108 112 110 105 94 89 88 86 87 88
199 201 198 202 201 207 209 203 213 219 225 220 216 213 204 210 223 237 243 239 241 282 285 244 250 233 226 219 211 254 259 197 163 135 126 125 125 121 115 106 94 89 91 90
201 205 198 206 199 204 205 199 209 214 219 214 221 216 210 212 220 236 242 243 251 260 289 252 238 246 231 220 221 238 249 215 188 157 149 137 137 136 127 117 110 96 81 78
199 202 198 209 205 202 201 198 210 214 223 219 213 208 205 210 221 228 242 242 248 251 263 259 230 245 243 223 223 219 235 224 196 183 168 162 158 158 146 131 119 105 107 104
196 202 200 201 206 207 203 202 206 213 220 216 218 222 211 217 230 229 235 235 240 240 240 229 224 238 249 240 230 228 218 222 205 195 186 179 173 173 172 154 132 125 124 123
169 196 200 199 202 204 210 201 204 211 218 218 215 220 225 223 231 232 239 243 245 242 228 220 232 230 246 247 240 224 210 214 209 203 189 189 185 179 170 166 160 157 145 137
170 181 193 196 201 203 211 208 204 204 209 214 211 217 228 235 225 223 230 240 244 242 227 216 233 228 236 236 224 210 212 206 212 212 206 195 193 192 188 182 176 171 163 161
179 177 185 195 199 207 213 211 207 206 208 213 216 221 227 228 221 230 237 235 240 235 223 221 225 236 234 232 234 228 217 213 212 215 223 216 212 205 203 199 202 199 194 192
Height
5770 5766 5768 5779 5783 5784 5786 5787 5788 5792 5793 5793 5796 5796 5799 5800 5800 5802 5803 5801 5799 5798 5798 5794 5791 5787 5782 5777 5774 5770 5765 5759 5755 5750 5744 5738 5732 5727 5721 5715 5710 5705 5699 5693
5760 5758 5771 5778 5778 5778 5780 5781 5785 5788 5789 5788 5791 5792 5792 5795 5796 5796 5797 5797 5795 5794 5793 5790 5788 5783 5778 5774 5770 5766 5761 5756 5751 5746 5740 5735 5730 5725 5718 5713 5707 5702 5696 5691
5750 5759 5767 5768 5771 5771 5775 5777 5784 5787 5787 5784 5786 5786 5788 5790 5790 5791 5794 5792 5791 5790 5789 5785 5783 5778 5774 5770 5766 5762 5758 5753 5748 5743 5737 5732 5728 5722 5716 5712 5707 5700 5695 5690
5740 5747 5754 5757 5761 5766 5767 5777 5778 5780 5780 5781 5782 5781 5781 5785 5786 5788 5789 5789 5788 5789 5783 5781 5776 5773 5770 5766 5763 5759 5754 5750 5745 5740 5734 5730 5726 5721 5716 5711 5705 5698 5693 5689
5728 5737 5744 5750 5757 5762 5769 5769 5771 5774 5776 5776 5778 5775 5780 5782 5784 5784 5784 5785 5785 5782 5778 5773 5770 5769 5767 5763 5759 5755 5751 5747 5742 5737 5732 5728 5724 5720 5714 5708 5703 5698 5694 5690
5719 5728 5736 5741 5746 5752 5764 5760 5764 5767 5767 5762 5773 5773 5777 5776 5777 5778 5781 5784 5780 5777 5773 5769 5767 5765 5763 5760 5756 5752 5748 5744 5740 5734 5729 5726 5722 5718 5714 5708 5702 5698 5694 5691
5707 5714 5723 5728 5733 5740 5748 5752 5753 5754 5753 5757 5767 5770 5773 5771 5773 5774 5778 5779 5774 5773 5771 5767 5765 5763 5760 5757 5754 5750 5746 5741 5737 5732 5728 5725 5721 5718 5714 5708 5703 5698 5694 5692
5704 5710 5716 5722 5724 5734 5738 5743 5745 5745 5751 5757 5761 5763 5767 5768 5769 5770 5773 5773 5771 5769 5769 5765 5763 5760 5757 5754 5752 5748 5744 5739 5735 5730 5727 5724 5721 5717 5713 5709 5703 5699 5695 5694
5695 5701 5710 5715 5720 5727 5732 5733 5746 5747 5750 5752 5757 5759 5760 5762 5765 5768 5769 5770 5769 5766 5765 5762 5759 5757 5755 5753 5751 5746 5742 5737 5732 5729 5727 5724 5721 5717 5713 5709 5705 5700 5697 5696
5688 5693 5702 5706 5711 5718 5725 5732 5735 5735 5739 5745 5751 5753 5756 5758 5761 5764 5766 5766 5766 5765 5761 5759 5756 5755 5753 5751 5749 5745 5740 5736 5732 5729 5727 5724 5721 5717 5714 5710 5707 5703 5700 5698
5674 5681 5689 5695 5703 5709 5714 5717 5724 5733 5737 5740 5747 5750 5754 5755 5757 5761 5762 5764 5765 5761 5758 5756 5754 5752 5751 5750 5748 5744 5740 5735 5732 5729 5727 5724 5722 5718 5715 5711 5708 5706 5704 5700
5662 5669 5680 5694 5699 5706 5710 5717 5722 5726 5731 5734 5740 5744 5749 5751 5754 5758 5760 5762 5761 5758 5756 5754 5753 5751 5750 5749 5747 5743 5739 5736 5733 5730 5728 5725 5723 5720 5717 5714 5710 5708 5707 5705
5644 5651 5669 5680 5686 5692 5698 5707 5714 5721 5725 5730 5735 5741 5744 5747 5751 5754 5757 5759 5758 5754 5754 5753 5753 5751 5749 5749 5746 5743 5740 5737 5735 5732 5730 5727 5725 5723 5720 5718 5715 5712 5710 5710
5632 5643 5655 5670 5683 5692 5694 5700 5707 5714 5718 5725 5730 5736 5738 5743 5747 5751 5754 5755 5756 5753 5753 5752 5752 5750 5748 5747 5746 5743 5740 5739 5737 5734 5732 5730 5728 5726 5724 5721 5720 5718 5715 5714
5627 5642 5652 5664 5676 5683 5692 5697 5701 5705 5714 5717 5728 5731 5734 5739 5742 5746 5749 5752 5754 5751 5752 5751 5751 5750 5748 5747 5746 5744 5741 5740 5738 5736 5734 5732 5731 5729 5728 5726 5723 5722 5721 5719
5621 5637 5644 5654 5667 5675 5681 5688 5696 5702 5709 5714 5722 5726 5732 5734 5738 5741 5745 5750 5752 5750 5750 5750 5749 5749 5748 5747 5746 5745 5743 5741 5740 5738 5736 5735 5733 5732 5731 5730 5726 5726 5726 5724
5613 5624 5634 5645 5658 5668 5666 5676 5687 5695 5704 5709 5714 5723 5727 5730 5733 5738 5742 5746 5748 5748 5748 5748 5748 5747 5747 5747 5747 5746 5744 5742 5741 5740 5739 5738 5736 5735 5734 5734 5733 5732 5731 5730
5600 5612 5624 5639 5647 5645 5657 5672 5682 5689 5697 5704 5711 5718 5723 5726 5730 5733 5736 5740 5745 5747 5746 5746 5747 5747 5747 5747 5747 5747 5746 5743 5743 5742 5741 5741 5740 5739 5738 5738 5738 5737 5736 5735
5591 5602 5616 5626 5632 5646 5652 5664 5671 5679 5688 5696 5704 5713 5717 5722 5725 5726 5731 5737 5741 5744 5744 5744 5745 5745 5746 5745 5746 5747 5747 5745 5744 5744 5743 5744 5744 5743 5742 5742 5742 5742 5742 5741
5588 5596 5609 5619 5625 5634 5649 5662 5669 5678 5682 5690 5697 5705 5712 5715 5717 5723 5729 5732 5737 5739 5741 5741 5742 5743 5744 5745 5745 5746 5747 5746 5745 5745 5746 5746 5747 5747 5747 5747 5747 5747 5747 5747
5581 5587 5603 5609 5618 5634 5647 5660 5667 5667 5676 5686 5692 5700 5706 5708 5717 5722 5724 5726 5731 5735 5737 5738 5739 5740 5742 5744 5745 5745 5746 5747 5746 5746 5747 5747 5748 5750 5750 5751 5752 5752 5751 5751
5573 5582 5595 5605 5617 5627 5635 5652 5657 5661 5670 5680 5686 5693 5699 5706 5710 5715 5718 5721 5725 5731 5733 5735 5736 5738 5739 5741 5743 5744 5745 5746 5747 5747 5748 5748 5749 5750 5752 5753 5753 5754 5755 5755
5564 5573 5584 5596 5605 5616 5627 5634 5641 5652 5662 5671 5680 5687 5694 5700 5704 5710 5714 5717 5721 5727 5730 5732 5733 5734 5736 5738 5740 5741 5744 5745 5746 5747 5748 5749 5750 5751 5752 5753 5754 5755 5757 5758
5546 5562 5575 5587 5598 5604 5613 5626 5634 5645 5654 5663 5671 5679 5687 5695 5700 5705 5709 5712 5716 5722 5726 5728 5730 5731 5733 5735 5737 5738 5741 5743 5744 5746 5748 5749 5750 5752 5753 5754 5756 5756 5757 5759
5538 5549 5563 5576 5588 5599 5607 5623 5630 5639 5649 5655 5664 5672 5679 5686 5694 5698 5703 5707 5711 5717 5720 5723 5726 5727 5730 5732 5734 5736 5738 5740 5742 5744 5746 5749 5750 5751 5753 5755 5757 5758 5759 5760
5533 5542 5552 5567 5580 5591 5601 5615 5624 5633 5641 5647 5655 5663 5670 5676 5685 5691 5696 5700 5703 5710 5716 5718 5721 5723 5726 5729 5731 5734 5735 5738 5740 5742 5744 5746 5748 5750 5752 5754 5755 5757 5759 5760